| time (UTC) | temp F | wind direction | speed MPH | gust MPH | rain 1hr in | rain 24hr in | rain mn in | humidity % | barometer mb |
| 20260507014609 | 66 | 20 | 1.0 | 8.0 | 0.00 | 0.00 | 0.00 | 68 | 1007.8 |
| 20260507014051 | 67 | 348 | 3.0 | 6.0 | 0.00 | 0.00 | 0.00 | 69 | 1007.8 |
| 20260507013538 | 67 | 33 | 2.0 | 9.0 | 0.00 | 0.00 | 0.00 | 68 | 1007.7 |
| 20260507013003 | 67 | 336 | 2.0 | 8.0 | 0.00 | 0.00 | 0.00 | 69 | 1007.7 |
| 20260507012553 | 67 | 14 | 3.0 | 7.0 | 0.00 | 0.00 | 0.00 | 69 | 1007.7 |
| 20260507012044 | 68 | 53 | 1.0 | 6.0 | 0.00 | 0.00 | 0.00 | 68 | 1007.7 |
| 20260507011503 | 68 | 351 | 3.0 | 6.0 | 0.00 | 0.00 | 0.00 | 69 | 1007.7 |
| 20260507011053 | 68 | 16 | 2.0 | 5.0 | 0.00 | 0.00 | 0.00 | 68 | 1007.7 |
| 20260507010541 | 68 | 61 | 2.0 | 8.0 | 0.00 | 0.00 | 0.00 | 70 | 1007.7 |
| 20260507005551 | 68 | 246 | 1.0 | 8.0 | 0.00 | 0.00 | 0.00 | 71 | 1007.6 |
| 20260507005039 | 68 | 5 | 3.0 | 8.0 | 0.00 | 0.00 | 0.00 | 70 | 1007.6 |
| 20260507004500 | 68 | 5 | 1.0 | 8.0 | 0.00 | 0.00 | 0.00 | 69 | 1007.6 |
| 20260507004051 | 69 | 314 | 3.0 | 8.0 | 0.00 | 0.00 | 0.00 | 68 | 1007.6 |
| 20260507003540 | 69 | 350 | 4.0 | 9.0 | 0.00 | 0.00 | 0.00 | 68 | 1007.5 |
| 20260507003101 | 69 | 71 | 5.0 | 9.0 | 0.00 | 0.00 | 0.00 | 67 | 1007.6 |
| 20260507002548 | 70 | 355 | 2.0 | 5.0 | 0.00 | 0.00 | 0.00 | 68 | 1007.5 |
| 20260507002036 | 70 | 319 | 2.0 | 8.0 | 0.00 | 0.00 | 0.00 | 67 | 1007.5 |
| 20260507001504 | 70 | 16 | 3.0 | 8.0 | 0.00 | 0.00 | 0.00 | 68 | 1007.5 |
| 20260507001056 | 70 | 324 | 1.0 | 8.0 | 0.00 | 0.00 | 0.00 | 67 | 1007.3 |
| 20260507000546 | 70 | 321 | 0.0 | 1.0 | 0.00 | 0.00 | 0.00 | 67 | 1007.5 |
| 20260507000002 | 70 | 36 | 0.0 | 0.0 | 0.00 | 0.00 | 0.00 | 65 | 1007.3 |
| 20260506235552 | 70 | 36 | 0.0 | 4.0 | 0.00 | 0.00 | 0.00 | 65 | 1007.4 |
| 20260506235042 | 70 | 36 | 2.0 | 4.0 | 0.00 | 0.00 | 0.00 | 68 | 1007.4 |
| 20260506234612 | 70 | 30 | 0.0 | 3.0 | 0.00 | 0.00 | 0.00 | 67 | 1007.4 |
| 20260506234053 | 70 | 348 | 1.0 | 3.0 | 0.00 | 0.00 | 0.00 | 65 | 1007.3 |
| 20260506233538 | 69 | 5 | 0.0 | 4.0 | 0.00 | 0.00 | 0.00 | 66 | 1007.3 |
| 20260506233043 | 69 | 33 | 1.0 | 4.0 | 0.00 | 0.00 | 0.00 | 68 | 1007.3 |
| 20260506232532 | 69 | 351 | 0.0 | 4.0 | 0.00 | 0.00 | 0.00 | 66 | 1007.4 |
| 20260506232019 | 69 | 33 | 0.0 | 3.0 | 0.00 | 0.00 | 0.00 | 68 | 1007.3 |
| 20260506231551 | 69 | 26 | 0.0 | 3.0 | 0.00 | 0.00 | 0.00 | 68 | 1007.3 |
| 20260506231030 | 69 | 22 | 0.0 | 4.0 | 0.00 | 0.00 | 0.00 | 68 | 1007.5 |
| 20260506230517 | 69 | 9 | 1.0 | 4.0 | 0.00 | 0.00 | 0.00 | 67 | 1007.5 |
| 20260506230049 | 68 | 101 | 0.0 | 2.0 | 0.00 | 0.00 | 0.00 | 67 | 1007.5 |
| 20260506225522 | 68 | 107 | 0.0 | 4.0 | 0.00 | 0.00 | 0.00 | 68 | 1007.6 |
| 20260506225001 | 68 | 328 | 1.0 | 4.0 | 0.00 | 0.00 | 0.00 | 69 | 1007.6 |
| 20260506224522 | 68 | 25 | 0.0 | 1.0 | 0.00 | 0.00 | 0.00 | 69 | 1007.7 |
| 20260506224004 | 68 | 40 | 0.0 | 1.0 | 0.00 | 0.00 | 0.00 | 69 | 1007.7 |
| 20260506223555 | 67 | 90 | 0.0 | 1.0 | 0.00 | 0.00 | 0.00 | 67 | 1007.8 |
| 20260506223017 | 68 | 203 | 0.0 | 6.0 | 0.00 | 0.00 | 0.00 | 67 | 1007.9 |
| 20260506222606 | 68 | 76 | 1.0 | 6.0 | 0.00 | 0.00 | 0.00 | 68 | 1007.8 |
| 20260506222051 | 68 | 17 | 0.0 | 4.0 | 0.00 | 0.00 | 0.00 | 69 | 1007.9 |
| 20260506221603 | 68 | 70 | 0.0 | 7.0 | 0.00 | 0.00 | 0.00 | 68 | 1007.9 |
| 20260506221048 | 68 | 64 | 3.0 | 7.0 | 0.00 | 0.00 | 0.00 | 68 | 1007.8 |
| 20260506220539 | 68 | 68 | 2.0 | 6.0 | 0.00 | 0.00 | 0.00 | 68 | 1007.9 |
| 20260506220058 | 68 | 50 | 2.0 | 5.0 | 0.00 | 0.00 | 0.00 | 68 | 1007.8 |
| 20260506215546 | 68 | 51 | 1.0 | 4.0 | 0.00 | 0.00 | 0.00 | 67 | 1007.8 |
| 20260506215032 | 68 | 323 | 1.0 | 6.0 | 0.00 | 0.00 | 0.00 | 68 | 1007.8 |
| 20260506214555 | 68 | 81 | 1.0 | 6.0 | 0.00 | 0.00 | 0.00 | 70 | 1007.7 |
| 20260506214042 | 68 | 64 | 1.0 | 4.0 | 0.00 | 0.00 | 0.00 | 69 | 1007.7 |
| 20260506213532 | 67 | 55 | 2.0 | 4.0 | 0.00 | 0.00 | 0.00 | 67 | 1007.8 |
| 20260506213103 | 68 | 86 | 0.0 | 4.0 | 0.00 | 0.00 | 0.00 | 65 | 1007.8 |
| 20260506212533 | 68 | 5 | 1.0 | 3.0 | 0.00 | 0.00 | 0.00 | 66 | 1007.9 |
| 20260506212018 | 68 | 134 | 2.0 | 6.0 | 0.00 | 0.00 | 0.00 | 67 | 1008.0 |
| 20260506211554 | 67 | 186 | 0.0 | 6.0 | 0.00 | 0.00 | 0.00 | 68 | 1008.1 |
| 20260506211030 | 67 | 148 | 2.0 | 6.0 | 0.00 | 0.00 | 0.00 | 67 | 1008.2 |
| 20260506210517 | 67 | 111 | 0.0 | 5.0 | 0.00 | 0.00 | 0.00 | 68 | 1008.1 |
| 20260506210037 | 67 | 334 | 2.0 | 5.0 | 0.00 | 0.00 | 0.00 | 68 | 1008.2 |
| 20260506205523 | 67 | 209 | 0.0 | 2.0 | 0.00 | 0.00 | 0.00 | 69 | 1008.3 |
| 20260506205008 | 67 | 35 | 0.0 | 6.0 | 0.00 | 0.00 | 0.00 | 68 | 1008.3 |
| 20260506204527 | 67 | 94 | 1.0 | 6.0 | 0.00 | 0.00 | 0.00 | 68 | 1008.3 |
| 20260506204015 | 66 | 50 | 2.0 | 8.0 | 0.00 | 0.00 | 0.00 | 68 | 1008.2 |
| 20260506203503 | 67 | 272 | 3.0 | 8.0 | 0.00 | 0.00 | 0.00 | 67 | 1008.2 |
| 20260506203023 | 67 | 158 | 2.0 | 8.0 | 0.00 | 0.00 | 0.00 | 67 | 1008.1 |
| 20260506202539 | 67 | 349 | 0.0 | 6.0 | 0.00 | 0.00 | 0.00 | 69 | 1008.0 |
| 20260506202106 | 66 | 243 | 1.0 | 6.0 | 0.00 | 0.00 | 0.00 | 68 | 1008.1 |
| 20260506201532 | 66 | 355 | 1.0 | 6.0 | 0.00 | 0.00 | 0.00 | 69 | 1008.1 |
| 20260506201007 | 68 | 180 | 0.0 | 7.0 | 0.00 | 0.00 | 0.00 | 66 | 1008.3 |
| 20260506200558 | 68 | 190 | 2.0 | 7.0 | 0.00 | 0.00 | 0.00 | 71 | 1008.3 |
| 20260506200014 | 66 | 40 | 2.0 | 6.0 | 0.00 | 0.00 | 0.00 | 72 | 1008.3 |
| 20260506195604 | 65 | 155 | 0.0 | 6.0 | 0.00 | 0.00 | 0.00 | 70 | 1008.5 |
| 20260506195051 | 65 | 154 | 3.0 | 6.0 | 0.00 | 0.00 | 0.00 | 71 | 1008.5 |
| 20260506194525 | 65 | 192 | 2.0 | 4.0 | 0.00 | 0.00 | 0.00 | 72 | 1008.6 |
| 20260506194006 | 65 | 267 | 2.0 | 4.0 | 0.00 | 0.00 | 0.00 | 70 | 1008.8 |
| 20260506193555 | 65 | 84 | 2.0 | 4.0 | 0.00 | 0.00 | 0.00 | 69 | 1008.8 |
| 20260506193005 | 65 | 16 | 0.0 | 5.0 | 0.00 | 0.00 | 0.00 | 72 | 1008.7 |
| 20260506192556 | 65 | 86 | 2.0 | 5.0 | 0.00 | 0.00 | 0.00 | 72 | 1008.7 |
| 20260506192032 | 64 | 342 | 0.0 | 4.0 | 0.00 | 0.00 | 0.00 | 73 | 1008.8 |
| 20260506191554 | 64 | 305 | 1.0 | 4.0 | 0.00 | 0.00 | 0.00 | 75 | 1008.8 |
| 20260506191039 | 64 | 5 | 1.0 | 3.0 | 0.00 | 0.00 | 0.00 | 73 | 1008.7 |
| 20260506190525 | 63 | 85 | 0.0 | 5.0 | 0.00 | 0.00 | 0.00 | 75 | 1008.7 |
| 20260506190032 | 63 | 261 | 1.0 | 5.0 | 0.00 | 0.00 | 0.00 | 76 | 1008.7 |
| 20260506185520 | 63 | 87 | 0.0 | 7.0 | 0.00 | 0.00 | 0.00 | 74 | 1008.8 |
| 20260506185009 | 63 | 195 | 2.0 | 7.0 | 0.00 | 0.00 | 0.00 | 74 | 1008.7 |
| 20260506184528 | 63 | 278 | 3.0 | 7.0 | 0.00 | 0.00 | 0.00 | 75 | 1008.8 |
| 20260506184019 | 62 | 72 | 2.0 | 5.0 | 0.00 | 0.00 | 0.00 | 75 | 1008.6 |
| 20260506183505 | 62 | 301 | 2.0 | 5.0 | 0.00 | 0.00 | 0.00 | 75 | 1008.5 |
| 20260506183045 | 62 | 193 | 1.0 | 5.0 | 0.00 | 0.00 | 0.00 | 75 | 1008.5 |
| 20260506182523 | 62 | 123 | 1.0 | 5.0 | 0.00 | 0.00 | 0.00 | 76 | 1008.6 |
| 20260506182011 | 62 | 184 | 1.0 | 4.0 | 0.00 | 0.00 | 0.00 | 75 | 1008.7 |
| 20260506181537 | 62 | 121 | 1.0 | 5.0 | 0.00 | 0.00 | 0.00 | 77 | 1008.7 |
| 20260506181019 | 62 | 148 | 1.0 | 6.0 | 0.00 | 0.00 | 0.00 | 76 | 1008.8 |
| 20260506180507 | 62 | 114 | 1.0 | 6.0 | 0.00 | 0.00 | 0.00 | 73 | 1008.8 |
| 20260506180028 | 63 | 290 | 2.0 | 5.0 | 0.00 | 0.00 | 0.00 | 74 | 1008.9 |
| 20260506175514 | 62 | 161 | 1.0 | 4.0 | 0.00 | 0.00 | 0.00 | 76 | 1008.8 |
| 20260506175057 | 62 | 158 | 0.0 | 6.0 | 0.00 | 0.00 | 0.00 | 76 | 1008.8 |
| 20260506174513 | 61 | 162 | 1.0 | 6.0 | 0.00 | 0.00 | 0.00 | 75 | 1008.8 |
| 20260506174002 | 62 | 278 | 2.0 | 5.0 | 0.00 | 0.00 | 0.00 | 76 | 1008.8 |
| 20260506173551 | 61 | 256 | 1.0 | 4.0 | 0.00 | 0.00 | 0.00 | 76 | 1008.8 |
| 20260506173010 | 61 | 306 | 0.0 | 3.0 | 0.00 | 0.00 | 0.00 | 76 | 1008.6 |
| 20260506172556 | 61 | 65 | 1.0 | 3.0 | 0.00 | 0.00 | 0.00 | 77 | 1008.6 |
| 20260506172015 | 61 | 319 | 1.0 | 5.0 | 0.00 | 0.00 | 0.00 | 78 | 1008.5 |
| 20260506171542 | 60 | 347 | 1.0 | 5.0 | 0.00 | 0.00 | 0.00 | 78 | 1008.6 |
| 20260506171009 | 60 | 170 | 1.0 | 4.0 | 0.00 | 0.00 | 0.00 | 78 | 1008.5 |
| 20260506170555 | 59 | 134 | 2.0 | 4.0 | 0.00 | 0.00 | 0.00 | 78 | 1008.5 |
| 20260506170014 | 59 | 169 | 0.0 | 3.0 | 0.00 | 0.00 | 0.00 | 80 | 1008.7 |
| 20260506165603 | 59 | 172 | 0.0 | 3.0 | 0.00 | 0.00 | 0.00 | 79 | 1008.7 |
| 20260506165051 | 59 | 173 | 1.0 | 5.0 | 0.00 | 0.00 | 0.00 | 79 | 1008.7 |
| 20260506164510 | 59 | 184 | 1.0 | 5.0 | 0.00 | 0.00 | 0.00 | 79 | 1008.7 |
| 20260506164102 | 59 | 49 | 0.0 | 2.0 | 0.00 | 0.00 | 0.00 | 79 | 1008.8 |
| 20260506163545 | 59 | 49 | 0.0 | 2.0 | 0.00 | 0.00 | 0.00 | 79 | 1008.7 |
| 20260506163003 | 59 | 49 | 0.0 | 2.0 | 0.00 | 0.00 | 0.00 | 79 | 1008.6 |
| 20260506162555 | 59 | 49 | 1.0 | 2.0 | 0.00 | 0.00 | 0.00 | 80 | 1008.7 |
| 20260506162041 | 59 | 49 | 0.0 | 3.0 | 0.00 | 0.00 | 0.00 | 80 | 1008.7 |
| 20260506161511 | 59 | 49 | 1.0 | 3.0 | 0.00 | 0.00 | 0.00 | 80 | 1008.7 |
| 20260506161102 | 59 | 48 | 1.0 | 3.0 | 0.00 | 0.00 | 0.00 | 80 | 1008.6 |
| 20260506160541 | 59 | 25 | 0.0 | 3.0 | 0.00 | 0.00 | 0.00 | 80 | 1008.5 |
| 20260506160115 | 58 | 71 | 1.0 | 4.0 | 0.00 | 0.00 | 0.00 | 81 | 1008.2 |
| 20260506155548 | 58 | 51 | 1.0 | 3.0 | 0.00 | 0.00 | 0.00 | 81 | 1008.4 |
| 20260506155034 | 58 | 294 | 0.0 | 2.0 | 0.00 | 0.00 | 0.00 | 81 | 1008.3 |
| 20260506154604 | 57 | 286 | 0.0 | 3.0 | 0.00 | 0.00 | 0.00 | 81 | 1008.0 |
| 20260506154046 | 57 | 286 | 0.0 | 4.0 | 0.00 | 0.00 | 0.00 | 82 | 1008.1 |
| 20260506153533 | 57 | 258 | 2.0 | 4.0 | 0.00 | 0.00 | 0.00 | 83 | 1008.0 |
| 20260506153056 | 56 | 214 | 0.0 | 3.0 | 0.00 | 0.00 | 0.00 | 84 | 1007.8 |
| 20260506152541 | 55 | 228 | 0.0 | 3.0 | 0.00 | 0.00 | 0.00 | 84 | 1007.9 |
| 20260506152026 | 55 | 316 | 0.0 | 4.0 | 0.00 | 0.00 | 0.00 | 85 | 1008.3 |
| 20260506151547 | 55 | 5 | 0.0 | 4.0 | 0.00 | 0.00 | 0.00 | 85 | 1008.5 |
| 20260506151014 | 55 | 263 | 0.0 | 5.0 | 0.00 | 0.00 | 0.00 | 85 | 1008.6 |
| 20260506150554 | 55 | 283 | 1.0 | 5.0 | 0.00 | 0.00 | 0.00 | 85 | 1008.7 |
| 20260506150012 | 55 | 73 | 0.0 | 6.0 | 0.00 | 0.00 | 0.00 | 86 | 1008.7 |
| 20260506145604 | 55 | 33 | 2.0 | 6.0 | 0.00 | 0.00 | 0.00 | 86 | 1008.8 |
| 20260506145054 | 55 | 246 | 0.0 | 4.0 | 0.00 | 0.00 | 0.00 | 86 | 1008.6 |
| 20260506144518 | 55 | 244 | 0.0 | 4.0 | 0.00 | 0.00 | 0.00 | 86 | 1008.6 |
| 20260506144107 | 55 | 5 | 0.0 | 3.0 | 0.00 | 0.00 | 0.00 | 86 | 1008.6 |
| 20260506143547 | 55 | 286 | 0.0 | 3.0 | 0.00 | 0.00 | 0.00 | 86 | 1008.5 |
| 20260506143007 | 55 | 293 | 1.0 | 2.0 | 0.00 | 0.00 | 0.00 | 87 | 1008.4 |
| 20260506142557 | 55 | 320 | 0.0 | 4.0 | 0.00 | 0.00 | 0.00 | 87 | 1008.4 |
| 20260506142041 | 55 | 320 | 1.0 | 4.0 | 0.00 | 0.00 | 0.00 | 87 | 1008.2 |
| 20260506141508 | 55 | 294 | 0.0 | 0.0 | 0.00 | 0.00 | 0.00 | 87 | 1008.0 |
| 20260506141054 | 55 | 294 | 0.0 | 0.0 | 0.00 | 0.00 | 0.00 | 87 | 1008.0 |
| 20260506140542 | 55 | 294 | 0.0 | 0.0 | 0.00 | 0.00 | 0.00 | 87 | 1007.6 |
| 20260506140002 | 55 | 292 | 0.0 | 0.0 | 0.00 | 0.00 | 0.00 | 87 | 1007.6 |
| 20260506135551 | 55 | 292 | 0.0 | 0.0 | 0.00 | 0.00 | 0.00 | 86 | 1007.6 |
| 20260506135038 | 55 | 292 | 0.0 | 0.0 | 0.00 | 0.00 | 0.00 | 86 | 1007.5 |
| 20260506134511 | 55 | 292 | 0.0 | 0.0 | 0.00 | 0.00 | 0.00 | 86 | 1007.5 |
| 20260506134059 | 55 | 292 | 0.0 | 0.0 | 0.00 | 0.00 | 0.00 | 86 | 1007.5 |
| 20260506133548 | 55 | 292 | 0.0 | 0.0 | 0.00 | 0.00 | 0.00 | 86 | 1007.5 |
| 20260506133012 | 55 | 292 | 0.0 | 0.0 | 0.00 | 0.00 | 0.00 | 85 | 1007.5 |
| 20260506132557 | 55 | 292 | 0.0 | 0.0 | 0.00 | 0.00 | 0.00 | 85 | 1007.4 |
| 20260506132039 | 55 | 292 | 0.0 | 0.0 | 0.00 | 0.00 | 0.00 | 85 | 1007.4 |
| 20260506131506 | 55 | 292 | 0.0 | 0.0 | 0.00 | 0.00 | 0.00 | 85 | 1007.4 |
| 20260506131059 | 55 | 292 | 0.0 | 0.0 | 0.00 | 0.00 | 0.00 | 85 | 1007.3 |
| 20260506130544 | 56 | 292 | 0.0 | 0.0 | 0.00 | 0.00 | 0.00 | 85 | 1007.2 |
| 20260506130009 | 56 | 292 | 0.0 | 0.0 | 0.00 | 0.00 | 0.00 | 85 | 1007.1 |
| 20260506125554 | 56 | 292 | 0.0 | 0.0 | 0.00 | 0.00 | 0.00 | 85 | 1007.0 |
| 20260506125040 | 56 | 292 | 0.0 | 0.0 | 0.00 | 0.00 | 0.00 | 85 | 1007.1 |
| 20260506124501 | 56 | 292 | 0.0 | 0.0 | 0.00 | 0.00 | 0.00 | 85 | 1007.1 |
| 20260506124051 | 56 | 292 | 0.0 | 0.0 | 0.00 | 0.00 | 0.00 | 85 | 1007.0 |
| 20260506123539 | 56 | 292 | 0.0 | 0.0 | 0.00 | 0.00 | 0.00 | 85 | 1006.9 |
| 20260506123100 | 56 | 292 | 0.0 | 0.0 | 0.00 | 0.00 | 0.00 | 85 | 1006.9 |
| 20260506122547 | 56 | 292 | 0.0 | 1.0 | 0.00 | 0.00 | 0.00 | 85 | 1006.9 |
| 20260506122036 | 56 | 292 | 0.0 | 1.0 | 0.00 | 0.00 | 0.00 | 85 | 1006.9 |
| 20260506121600 | 56 | 292 | 0.0 | 0.0 | 0.00 | 0.00 | 0.00 | 85 | 1007.0 |
| 20260506121049 | 56 | 292 | 0.0 | 0.0 | 0.00 | 0.00 | 0.00 | 85 | 1007.1 |
| 20260506120537 | 56 | 292 | 0.0 | 1.0 | 0.00 | 0.00 | 0.00 | 85 | 1007.1 |
| 20260506120058 | 56 | 292 | 0.0 | 0.0 | 0.00 | 0.00 | 0.00 | 85 | 1007.1 |
| 20260506115546 | 56 | 292 | 0.0 | 1.0 | 0.00 | 0.00 | 0.00 | 85 | 1007.1 |
| 20260506115035 | 56 | 292 | 0.0 | 3.0 | 0.00 | 0.00 | 0.00 | 85 | 1007.0 |
| 20260506114558 | 56 | 292 | 0.0 | 3.0 | 0.00 | 0.00 | 0.00 | 85 | 1006.9 |
| 20260506114046 | 56 | 292 | 0.0 | 3.0 | 0.00 | 0.00 | 0.00 | 85 | 1006.9 |
| 20260506113535 | 56 | 292 | 0.0 | 3.0 | 0.00 | 0.00 | 0.00 | 85 | 1006.8 |
| 20260506113058 | 56 | 14 | 0.0 | 4.0 | 0.00 | 0.00 | 0.00 | 85 | 1006.9 |
| 20260506112547 | 56 | 14 | 1.0 | 4.0 | 0.00 | 0.00 | 0.00 | 85 | 1006.8 |
| 20260506112034 | 57 | 348 | 0.0 | 0.0 | 0.00 | 0.00 | 0.00 | 85 | 1006.7 |
| 20260506111557 | 57 | 348 | 0.0 | 0.0 | 0.00 | 0.00 | 0.00 | 85 | 1006.7 |
| 20260506111046 | 57 | 348 | 0.0 | 0.0 | 0.00 | 0.00 | 0.00 | 85 | 1006.7 |
| 20260506110538 | 57 | 348 | 0.0 | 0.0 | 0.00 | 0.00 | 0.00 | 85 | 1006.5 |
| 20260506110008 | 57 | 348 | 0.0 | 0.0 | 0.00 | 0.00 | 0.00 | 85 | 1006.5 |
| 20260506105554 | 57 | 348 | 0.0 | 0.0 | 0.00 | 0.00 | 0.00 | 85 | 1006.4 |
| 20260506105041 | 57 | 348 | 0.0 | 0.0 | 0.00 | 0.00 | 0.00 | 85 | 1006.2 |
| 20260506104502 | 57 | 348 | 0.0 | 0.0 | 0.00 | 0.00 | 0.00 | 85 | 1006.2 |
| 20260506104052 | 57 | 348 | 0.0 | 0.0 | 0.00 | 0.00 | 0.00 | 85 | 1006.1 |
| 20260506103541 | 57 | 348 | 0.0 | 0.0 | 0.00 | 0.00 | 0.00 | 85 | 1006.0 |
| 20260506103003 | 57 | 348 | 0.0 | 0.0 | 0.00 | 0.00 | 0.00 | 85 | 1005.9 |
| 20260506102552 | 57 | 348 | 0.0 | 0.0 | 0.00 | 0.00 | 0.00 | 85 | 1005.9 |
| 20260506102040 | 57 | 348 | 0.0 | 0.0 | 0.00 | 0.00 | 0.00 | 85 | 1005.8 |
| 20260506101603 | 57 | 348 | 0.0 | 0.0 | 0.00 | 0.00 | 0.00 | 85 | 1005.9 |
| 20260506101051 | 57 | 348 | 0.0 | 0.0 | 0.00 | 0.00 | 0.00 | 85 | 1005.7 |
| 20260506100540 | 57 | 348 | 0.0 | 0.0 | 0.00 | 0.00 | 0.00 | 86 | 1005.7 |
| 20260506100100 | 57 | 348 | 0.0 | 0.0 | 0.00 | 0.00 | 0.00 | 86 | 1005.7 |
| 20260506095549 | 57 | 348 | 0.0 | 0.0 | 0.00 | 0.00 | 0.00 | 86 | 1005.8 |
| 20260506095037 | 57 | 348 | 0.0 | 0.0 | 0.00 | 0.00 | 0.00 | 85 | 1005.7 |
| 20260506094607 | 57 | 348 | 0.0 | 0.0 | 0.00 | 0.00 | 0.00 | 85 | 1005.7 |
| 20260506094046 | 57 | 348 | 0.0 | 0.0 | 0.00 | 0.00 | 0.00 | 85 | 1005.7 |
| 20260506093534 | 57 | 348 | 0.0 | 0.0 | 0.00 | 0.00 | 0.00 | 85 | 1005.6 |
| 20260506093058 | 57 | 348 | 0.0 | 0.0 | 0.00 | 0.00 | 0.00 | 85 | 1005.5 |
| 20260506092546 | 57 | 348 | 0.0 | 0.0 | 0.00 | 0.00 | 0.00 | 85 | 1005.6 |
| 20260506092035 | 57 | 348 | 0.0 | 0.0 | 0.00 | 0.00 | 0.00 | 85 | 1005.6 |
| 20260506091606 | 57 | 348 | 0.0 | 0.0 | 0.00 | 0.00 | 0.00 | 85 | 1005.5 |
| 20260506091045 | 57 | 348 | 0.0 | 0.0 | 0.00 | 0.00 | 0.00 | 85 | 1005.5 |
| 20260506090533 | 57 | 348 | 0.0 | 0.0 | 0.00 | 0.00 | 0.00 | 85 | 1005.5 |
| 20260506090058 | 57 | 348 | 0.0 | 0.0 | 0.00 | 0.00 | 0.00 | 85 | 1005.5 |
| 20260506085542 | 57 | 348 | 0.0 | 0.0 | 0.00 | 0.00 | 0.00 | 85 | 1005.5 |
| 20260506085031 | 57 | 348 | 0.0 | 0.0 | 0.00 | 0.00 | 0.00 | 85 | 1005.4 |
| 20260506084614 | 57 | 348 | 0.0 | 0.0 | 0.00 | 0.00 | 0.00 | 85 | 1005.4 |
| 20260506084043 | 57 | 348 | 0.0 | 0.0 | 0.00 | 0.00 | 0.00 | 85 | 1005.4 |
| 20260506083532 | 57 | 348 | 0.0 | 0.0 | 0.00 | 0.00 | 0.00 | 85 | 1005.4 |
| 20260506083055 | 57 | 348 | 0.0 | 0.0 | 0.00 | 0.00 | 0.00 | 85 | 1005.4 |
| 20260506082542 | 57 | 348 | 0.0 | 0.0 | 0.00 | 0.00 | 0.00 | 85 | 1005.4 |
| 20260506082031 | 57 | 348 | 0.0 | 0.0 | 0.00 | 0.00 | 0.00 | 85 | 1005.4 |
| 20260506081556 | 57 | 348 | 0.0 | 0.0 | 0.00 | 0.00 | 0.00 | 85 | 1005.4 |
| 20260506081042 | 57 | 348 | 0.0 | 0.0 | 0.00 | 0.00 | 0.00 | 85 | 1005.4 |
| 20260506080531 | 57 | 348 | 0.0 | 0.0 | 0.00 | 0.00 | 0.00 | 85 | 1005.4 |
| 20260506073059 | 58 | 348 | 0.0 | 0.0 | 0.00 | 0.00 | 0.00 | 85 | 1005.1 |
| 20260506072540 | 58 | 348 | 0.0 | 0.0 | 0.00 | 0.00 | 0.00 | 85 | 1005.1 |
| 20260506072028 | 58 | 348 | 0.0 | 0.0 | 0.00 | 0.00 | 0.00 | 85 | 1005.0 |
| 20260506071554 | 58 | 348 | 0.0 | 0.0 | 0.00 | 0.00 | 0.00 | 85 | 1004.9 |
| 20260506071040 | 58 | 348 | 0.0 | 0.0 | 0.00 | 0.00 | 0.00 | 85 | 1004.9 |
| 20260506070528 | 58 | 348 | 0.0 | 0.0 | 0.00 | 0.00 | 0.00 | 85 | 1004.9 |
| 20260506062516 | 57 | 348 | 0.0 | 0.0 | 0.00 | 0.00 | 0.00 | 85 | 1004.8 |
| 20260506062058 | 57 | 348 | 0.0 | 0.0 | 0.00 | 0.00 | 0.00 | 85 | 1004.7 |
| 20260506061538 | 57 | 348 | 0.0 | 0.0 | 0.00 | 0.00 | 0.00 | 85 | 1004.7 |
| 20260506061100 | 57 | 348 | 0.0 | 0.0 | 0.00 | 0.00 | 0.00 | 85 | 1004.7 |
| 20260506060549 | 57 | 348 | 0.0 | 0.0 | 0.00 | 0.00 | 0.00 | 85 | 1004.6 |
| 20260506051008 | 57 | 348 | 0.0 | 0.0 | 0.00 | 0.00 | 0.00 | 84 | 1004.5 |
| 20260506050556 | 57 | 348 | 0.0 | 0.0 | 0.00 | 0.00 | 0.00 | 84 | 1004.4 |
| 20260506045056 | 56 | 348 | 0.0 | 0.0 | 0.00 | 0.00 | 0.00 | 84 | 1004.4 |
| 20260506044522 | 57 | 348 | 0.0 | 0.0 | 0.00 | 0.00 | 0.00 | 83 | 1004.3 |
| 20260506044007 | 57 | 348 | 0.0 | 0.0 | 0.00 | 0.00 | 0.00 | 83 | 1004.3 |
| 20260506043556 | 57 | 348 | 0.0 | 0.0 | 0.00 | 0.00 | 0.00 | 83 | 1004.3 |
| 20260506043036 | 57 | 348 | 0.0 | 0.0 | 0.00 | 0.00 | 0.00 | 83 | 1004.2 |
| 20260506042511 | 57 | 348 | 0.0 | 0.0 | 0.00 | 0.00 | 0.00 | 82 | 1004.2 |
| 20260506042102 | 57 | 348 | 0.0 | 0.0 | 0.00 | 0.00 | 0.00 | 82 | 1004.1 |
| 20260506041526 | 57 | 348 | 0.0 | 0.0 | 0.00 | 0.00 | 0.00 | 81 | 1004.1 |
| 20260506041011 | 57 | 348 | 0.0 | 0.0 | 0.00 | 0.00 | 0.00 | 81 | 1004.0 |
| 20260506040552 | 58 | 348 | 0.0 | 0.0 | 0.00 | 0.00 | 0.00 | 81 | 1004.0 |
| 20260506040107 | 58 | 348 | 0.0 | 0.0 | 0.00 | 0.00 | 0.00 | 81 | 1004.0 |
| 20260506035540 | 58 | 348 | 0.0 | 0.0 | 0.00 | 0.00 | 0.00 | 80 | 1003.9 |
| 20260506035026 | 58 | 348 | 0.0 | 0.0 | 0.00 | 0.00 | 0.00 | 80 | 1003.9 |
| 20260506034549 | 58 | 348 | 0.0 | 0.0 | 0.00 | 0.00 | 0.00 | 80 | 1003.7 |
| 20260506034027 | 59 | 348 | 0.0 | 0.0 | 0.00 | 0.00 | 0.00 | 79 | 1003.5 |
| 20260506033511 | 59 | 348 | 0.0 | 0.0 | 0.00 | 0.00 | 0.00 | 79 | 1003.5 |
| 20260506033038 | 59 | 348 | 0.0 | 0.0 | 0.00 | 0.00 | 0.00 | 79 | 1003.5 |
| 20260506032521 | 59 | 348 | 0.0 | 0.0 | 0.00 | 0.00 | 0.00 | 79 | 1003.6 |
| 20260506032009 | 59 | 348 | 0.0 | 0.0 | 0.00 | 0.00 | 0.00 | 78 | 1003.5 |
| 20260506031548 | 60 | 348 | 0.0 | 0.0 | 0.00 | 0.00 | 0.00 | 78 | 1003.5 |
| 20260506031028 | 60 | 348 | 0.0 | 0.0 | 0.00 | 0.00 | 0.00 | 78 | 1003.5 |
| 20260506030517 | 60 | 348 | 0.0 | 0.0 | 0.00 | 0.00 | 0.00 | 77 | 1003.4 |
| 20260506030035 | 60 | 348 | 0.0 | 0.0 | 0.00 | 0.00 | 0.00 | 78 | 1003.4 |
| 20260506025523 | 61 | 348 | 0.0 | 0.0 | 0.00 | 0.00 | 0.00 | 76 | 1003.3 |
| 20260506025012 | 61 | 348 | 0.0 | 0.0 | 0.00 | 0.00 | 0.00 | 76 | 1003.2 |
| 20260506024541 | 61 | 348 | 0.0 | 0.0 | 0.00 | 0.00 | 0.00 | 76 | 1003.2 |
| 20260506024015 | 61 | 348 | 0.0 | 0.0 | 0.00 | 0.00 | 0.00 | 75 | 1003.1 |
| 20260506023502 | 62 | 348 | 0.0 | 1.0 | 0.00 | 0.00 | 0.00 | 74 | 1003.1 |
| 20260506023022 | 62 | 348 | 0.0 | 1.0 | 0.00 | 0.00 | 0.00 | 74 | 1003.2 |
| 20260506022513 | 62 | 350 | 0.0 | 1.0 | 0.00 | 0.00 | 0.00 | 74 | 1003.0 |
| 20260506022058 | 62 | 350 | 0.0 | 1.0 | 0.00 | 0.00 | 0.00 | 73 | 1003.0 |
| 20260506021529 | 63 | 350 | 0.0 | 1.0 | 0.00 | 0.00 | 0.00 | 72 | 1003.1 |
| 20260506021019 | 63 | 355 | 0.0 | 2.0 | 0.00 | 0.00 | 0.00 | 72 | 1003.2 |
| 20260506020502 | 63 | 346 | 0.0 | 2.0 | 0.00 | 0.00 | 0.00 | 72 | 1003.2 |
| 20260506020023 | 63 | 355 | 0.0 | 3.0 | 0.00 | 0.00 | 0.00 | 71 | 1003.2 |
| 20260506015514 | 64 | 24 | 1.0 | 3.0 | 0.00 | 0.00 | 0.00 | 70 | 1003.2 |
| 20260506015103 | 64 | 34 | 0.0 | 2.0 | 0.00 | 0.00 | 0.00 | 70 | 1003.1 |